Gianni Moscon

Soudal Quick-Step, Italia, 30 år

Pro Cycling Manager

Rittprogram

Informasjon

Gianni Moscon er en 30 år gammel profesjonell syklist fra Italia (født 20.april 1994), som sykler for Soudal Quick-Step (UCI WorldTeam). Han har vunnet 15 UCI ritt, og er nummer 1274 på UCI rankingen.

2024 2023 2022 2021 2020 2019 2018 2017 2016 2015

Soudal Quick-Step (WorldTour) UCI Ranking: 1274 (41pts)
Alle Flatt Kupert Fjell Tempo Brosten
Dato Pos GC Ritt UCI
23.06 DNF Italy RR | CN 2024-06-23Vis mer
09.06 Critérium du Dauphiné | 2.UWT 2024-06-09 Vis mer
09.06 88 Critérium du Dauphiné | Sammenlagt 2024-06-09
07.04 DNF Paris-Roubaix | 1.UWT 2024-04-07Vis mer
03.04 44 Scheldeprijs | 1.Pro 2024-04-03Vis mer
31.03 78 Ronde van Vlaanderen | 1.UWT 2024-03-31Vis mer
27.03 135 Dwars door Vlaanderen | 1.UWT 2024-03-27Vis mer
22.03 DNF E3 Saxo Classic | 1.UWT 2024-03-22Vis mer
16.03 55 Milano-Sanremo | 1.UWT 2024-03-1610Vis mer
10.03 Paris-Nice | 2.UWT 2024-03-10 Vis mer
10.03 DNF Paris-Nice | Sammenlagt 2024-03-10
24.02 80 Omloop Het Nieuwsblad | 1.UWT 2024-02-24Vis mer
28.01 65 Trofeo Palma | 1.1 2024-01-28Vis mer
27.01 102 Trofeo Andratx | 1.1 2024-01-27Vis mer
26.01 130 Trofeo Serra Tramuntana | 1.1 2024-01-26Vis mer
25.01 112 Trofeo Ses Salines - Felanitx | 1.1 2024-01-25Vis mer
24.01 86 Trofeo Calvia | 1.1 2024-01-24Vis mer
21.07 Tour de France 2.UWT 2024-07-21 Vis mer
20.07 9184 Tour de France | 20.etappe 2024-07-20
19.07 9785 Tour de France | 19.etappe 2024-07-19
18.07 5082 Tour de France | 18.etappe 2024-07-18
17.07 12177 Tour de France | 17.etappe 2024-07-17
16.07 8567 Tour de France | 16.etappe 2024-07-16
14.07 5970 Tour de France | 15.etappe 2024-07-14
13.07 7470 Tour de France | 14.etappe 2024-07-13
12.07 7071 Tour de France | 13.etappe 2024-07-12
11.07 12978 Tour de France | 12.etappe 2024-07-11
10.07 10079 Tour de France | 11.etappe 2024-07-10
09.07 5880 Tour de France | 10.etappe 2024-07-09
07.07 14781 Tour de France | 9.etappe 2024-07-07
06.07 3476 Tour de France | 8.etappe 2024-07-06
05.07 11280 Tour de France | 7.etappe 2024-07-05
04.07 5180 Tour de France | 6.etappe 2024-07-04
03.07 4381 Tour de France | 5.etappe 2024-07-03
02.07 7582 Tour de France | 4.etappe 2024-07-02
01.07 10488 Tour de France | 3.etappe 2024-07-01
30.06 9487 Tour de France | 2.etappe 2024-06-30
29.06 8585 Tour de France | 1.etappe 2024-06-29
09.06 9488 Critérium du Dauphiné | 8.etappe 2024-06-09
08.06 10284 Critérium du Dauphiné | 7.etappe 2024-06-08
07.06 10186 Critérium du Dauphiné | 6.etappe 2024-06-07
05.06 14281 Critérium du Dauphiné | 4.etappe 2024-06-05
04.06 7573 Critérium du Dauphiné | 3.etappe 2024-06-04
03.06 8280 Critérium du Dauphiné | 2.etappe 2024-06-03
02.06 9394 Critérium du Dauphiné | 1.etappe 2024-06-02
10.03 DNF Paris-Nice | 8.etappe 2024-03-10
09.03 11776 Paris-Nice | 7.etappe 2024-03-09
08.03 10858 Paris-Nice | 6.etappe 2024-03-08
07.03 7355 Paris-Nice | 5.etappe 2024-03-07
06.03 6057 Paris-Nice | 4.etappe 2024-03-06
05.03 434 Paris-Nice | 3.etappe | TTT 2024-03-053.57
04.03 10754 Paris-Nice | 2.etappe 2024-03-04
03.03 5050 Paris-Nice | 1.etappe 2024-03-03